Weather History for New Castle, PA

Change the Weather History Date:

Thursday, November 28, 2013

  Actual Average Record
Temperature  
Mean Temperature 19 °F -  
Max Temperature 25 °F 48 °F 74 °F (1990)
Min Temperature 13 °F 32 °F -1 °F (1950)
Degree Days  
Heating Degree Days 46    
Moisture  
Dew Point 15 °F    
Average Humidity 79    
Maximum Humidity 93    
Minimum Humidity 63    
Precipitation  
Precipitation 0.00 in - - ()
Sea Level Pressure  
Sea Level Pressure 30.38 in    
Wind  
Wind Speed 5 mph (WSW)    
Max Wind Speed 9 mph    
Max Gust Speed -    
Visibility 10 miles    
Events Snow    
Averages and records for this station are not official NWS values.
T = Trace of Precipitation, MM = Missing Value Source: NWS Daily Summary

Daily Weather History Graph

Daily Weather History Graph

Search for Another Location

Airport:

Trip Planner

Search our weather history database for the weather conditions in past years. The results will help you decide how hot, cold, wet, or windy it might be!

Date:

Astronomy

Nov. 28, 2013 Rise Set
Actual Time 7:24 AM EST 4:54 PM EST
Civil Twilight 6:53 AM EST 5:25 PM EST
Nautical Twilight 6:19 AM EST 5:59 PM EST
Astronomical Twilight 5:46 AM EST 6:32 PM EST
Moon 2:23 AM EST (11/28) 2:05 PM EST (11/28)
Length of Visible Light 10h 31m
Length of Day
9h 30m
Waning Crescent, 22% of the Moon is Illuminated
Nov 28
Waning Crescent
Dec 2
New
Dec 9
First Quarter
Dec 17
Full
Dec 25
Last Quarter

Hourly Weather History & Observations

Time (EST) Temp. Windchill Dew Point Humidity Pressure Visibility Wind Dir Wind Speed Gust Speed Precip Events Conditions
12:10 AM 19.4 °F 10.4 °F 17.6 °F 93% 30.11 in 6.0 mi WSW 6.9 mph - 0.00 in Snow Light Snow
12:56 AM 19.4 °F 10.4 °F 15.8 °F 86% 30.13 in 10.0 mi WSW 6.9 mph - N/A   Overcast
1:56 AM 20.1 °F 11.3 °F 15.1 °F 81% 30.25 in 10.0 mi WSW 6.9 mph - 0.00 in   Overcast
2:56 AM 20.1 °F 13.6 °F 15.1 °F 81% 30.28 in 10.0 mi WSW 4.6 mph - 0.00 in   Overcast
3:56 AM 17.6 °F 8.2 °F 15.8 °F 93% 30.21 in 10.0 mi SW 6.9 mph - N/A Snow Light Snow
4:56 AM 16.2 °F 5.5 °F 11.1 °F 81% 30.33 in 10.0 mi SW 8.1 mph - 0.00 in   Clear
5:56 AM 14.0 °F 2.0 °F 10.0 °F 84% 30.36 in 10.0 mi WSW 9.2 mph - N/A   Clear
6:56 AM 13.1 °F 5.4 °F 9.1 °F 84% 30.39 in 10.0 mi SW 4.6 mph - N/A   Clear
7:56 AM 14.0 °F 6.5 °F 8.1 °F 77% 30.42 in 10.0 mi SW 4.6 mph - N/A   Clear
8:56 AM 17.1 °F 8.7 °F 10.0 °F 74% 30.45 in 10.0 mi SW 5.8 mph - N/A   Clear
9:25 AM 17.6 °F 8.2 °F 10.4 °F 73% 30.36 in 10.0 mi WSW 6.9 mph - N/A   Mostly Cloudy
9:33 AM 19.4 °F 11.5 °F 10.4 °F 68% 30.36 in 10.0 mi WSW 5.8 mph - N/A   Mostly Cloudy
9:56 AM 19.4 °F 10.4 °F 12.2 °F 74% 30.37 in 10.0 mi West 6.9 mph - N/A   Scattered Clouds
10:56 AM 21.0 °F 11.4 °F 14.0 °F 74% 30.46 in 10.0 mi WSW 8.1 mph - 0.00 in Snow Light Snow
11:56 AM 23.0 °F 15.8 °F 15.1 °F 72% 30.45 in 10.0 mi WSW 5.8 mph - 0.00 in   Scattered Clouds
12:56 PM 24.1 °F - 15.1 °F 69% 30.43 in 10.0 mi Calm Calm - 0.00 in   Partly Cloudy
1:56 PM 25.2 °F 20.9 °F 14.0 °F 63% 30.42 in 10.0 mi SW 3.5 mph - N/A   Mostly Cloudy
2:56 PM 25.2 °F 20.9 °F 15.1 °F 66% 30.41 in 10.0 mi Variable 3.5 mph - N/A   Mostly Cloudy
3:56 PM 25.2 °F 20.9 °F 17.1 °F 71% 30.41 in 10.0 mi Variable 3.5 mph - N/A   Overcast
4:56 PM 24.1 °F - 18.1 °F 78% 30.43 in 10.0 mi Calm Calm - N/A   Overcast
5:56 PM 24.1 °F - 19.0 °F 81% 30.45 in 10.0 mi Calm Calm - N/A   Overcast
6:56 PM 24.1 °F - 19.0 °F 81% 30.46 in 10.0 mi Calm Calm - N/A   Overcast
7:56 PM 24.1 °F - 19.0 °F 81% 30.48 in 10.0 mi Calm Calm - N/A   Mostly Cloudy
8:56 PM 23.0 °F - 20.1 °F 89% 30.48 in 10.0 mi Calm Calm - N/A   Mostly Cloudy
9:56 PM 24.1 °F - 19.0 °F 81% 30.48 in 10.0 mi Calm Calm - N/A   Overcast
10:56 PM 23.0 °F - 20.1 °F 89% 30.50 in 10.0 mi Calm Calm - N/A   Overcast
11:56 PM 22.1 °F - 20.1 °F 92% 30.51 in 10.0 mi Calm Calm - N/A   Overcast